Location: Betpouey
(42.8833°N, 0.0333°E)
Time: 07:33:41
(UTC+00:00)

Lacrosse 4 Rocket - Pass Details

Date: 01 December 2020
Orbit: 538 x 620 km, 68.0° (Epoch: 17 January)

Event Time Altitude Azimuth Distance (km) Brightness Sun altitude
Rises 17:43:05 0° 163° (SSE) 2,678 4.8 -13.7°
Reaches altitude 10° 17:46:07 10° 137° (SE) 1,799 3.7 -14.2°
Enters shadow 17:47:14 13° 122° (ESE) 1,618 3.3 -14.4°
